STARLINK-1107, 44972

Orbit data source: Space-Track

STARLINK-1107, 44972 is a payload satellite owned by SpaceX/Seattle (US) in LEO that was launched on Tue, 07 Jan 2020 UTC via an FALCON 9 launch vehicle from the Air Force Eastern Test Range (AFETR). Payloads include a variety of satellites, spacecraft, and rockets equipped with specific instruments for various scientific and technological missions. These include communications satellites like Starlink; space stations such as the ISS; scientific satellites like the Hubble; Earth observation satellites from companies like Planet Labs, Umbra, and HawkEye 360; GPS; miniature CubeSats for education and research; and military/defense satellites.

Loading next visibility...
STARLINK-1107 details
Identifier
44972, 2020-001BL
Orbit
LEO
Last TLE update22 hours ago
Origin
Flag of USSpaceX/Seattle (US)
ManufacturerSpaceX/Seattle
MissionPartially operational Commercial Communications
Bus & MotorSTARLINK, Unknown motor
Mass260 kg wet, ~248 kg dry
Launch date (UTC)
2020-01-07 (5 years ago)
Launch vehicle
FALCON 9
Launch site
Air Force Eastern Test Range (AFETR)
Object type
Payload
Rocket body
Debris
Shape & HBRBox + 1 Pan, 8.86 m
Radar Cross Section13.562 m², Large (>1 m²)

Expand to show TLE details & history

TLE from 22 hours ago
0 STARLINK-1107
1 44972U 20001BL  24360.56313673  .00061633  00000-0  27528-2 0  9993
2 44972  53.0417 110.3202 0002120 201.5873 158.5033 15.20789199274333
Epoch: 2024-12-25T13:30Z
Definitive object data (Epoch: 2024-12-25T13:30:55.013Z)
Latitude-0.00002°
Longitude173.03587°
Altitude505.7 km
Speed7.612 km/s
True Right ascension07h 21m 16s
True Declination0° 00' 00"
Sunlit
Object was in full shadow at TLE epoch
Visualization TLE readout
Latitude22.87251°
Longitude-172.81345°
Altitude505.291 km
Speed7.614 km/s
Apparent Right ascension04h 55m 56s
Apparent Declination-18° 27' 43"
Sunlit
Object is in full shadow
Visualization observer readout
Local Sidereal Time11:04:45
Azimuth256.962° W
Elevation-13.366°
Doppler factor1
Orbital elements
Apogee altitude505.192 km
Perigee altitude502.274 km
Semi-major axis6,881.87 km
Eccentricity0.000212
Inclination53.0417°
RAAN110.3202°
Arg. of periapsis201.5873°
True anomaly158.5122°
Mean anomaly158.5033°
Eccentric anomaly158.50775°
Mean motion3.80175 °/min
BSTAR0.0027528
Orbital period94.69 mins
Loading maneuver chart data...

STARLINK-1107 Visibility forecast

Observer location: undefined°, undefined

Span
Click to sort rows by Start time (UTC) header in descending order
Start Az.
Max El. time (UTC)
Max El. Az.
Max El.
End time (UTC)
End Az.
5 mins2024-12-26 11:51:21.458Z291.655° WNW2024-12-26 11:54:21.458Z348.122° N18.988°2024-12-26 11:56:21.458Z22.319° NNE
5 mins2024-12-26 16:50:21.458Z316.684° NNW2024-12-26 16:52:21.458Z12.609° NNE43.665°2024-12-26 16:55:21.458Z122.758° SE
5 mins2024-12-27 09:52:21.458Z225.483° WSW2024-12-27 09:54:21.458Z136.877° SSE44.856°2024-12-27 09:57:21.458Z51.756° ENE
|